Temp
60 60 60 60 60 60 60 60 60 60 60 60 60 60 60 60 60 76 73 71 73 69 70 82 84 85 86 83 88 90 74 71 77 77 81 92 89 97 101 97 98 100 98 102 105
59 60 59 59 59 59 59 59 60 60 60 60 60 60 60 60 68 78 69 69 69 70 79 81 80 84 80 80 82 79 74 75 84 86 85 90 90 91 93 93 93 96 99 101 102
59 59 59 59 59 59 59 59 59 60 60 60 60 60 60 63 72 74 71 70 69 70 81 82 82 82 78 82 80 78 74 82 85 87 89 86 87 93 91 88 93 93 96 98 99
59 59 59 59 59 59 59 59 60 60 60 60 60 60 60 69 64 78 70 70 71 78 81 80 79 75 74 75 82 73 80 82 84 87 89 84 88 87 91 91 98 100 101 100 97
58 58 58 58 58 58 59 59 59 59 59 59 59 60 65 71 73 82 71 75 82 81 78 77 75 76 71 77 80 77 80 83 85 84 85 87 83 85 88 96 99 100 99 97 97
58 58 57 58 58 58 58 58 58 58 58 59 60 60 67 67 82 83 82 81 82 80 78 79 76 79 75 75 75 80 81 81 84 82 83 81 81 84 87 94 95 96 96 97 96
58 57 57 57 57 57 57 57 57 57 58 60 61 68 71 71 83 86 85 82 82 79 74 80 79 74 76 71 78 77 71 76 80 83 81 84 73 75 86 91 91 92 95 95 95
57 57 57 57 57 57 57 57 56 57 59 61 61 72 69 83 87 84 85 82 84 82 78 79 80 74 72 76 73 69 71 64 75 79 82 78 67 79 86 86 86 90 93 94 96
57 57 56 57 57 57 57 56 57 60 61 62 65 71 68 76 78 82 82 76 79 81 81 78 76 70 72 65 62 66 59 65 69 79 78 76 70 80 85 85 85 87 91 92 94
57 56 56 56 57 56 56 55 62 60 64 73 75 67 75 70 78 79 83 80 74 74 72 71 69 64 67 63 53 60 63 65 65 76 76 73 73 79 83 82 82 85 89 91 92
56 56 55 56 56 55 59 74 68 65 73 69 69 68 72 79 81 76 79 75 75 70 61 69 63 59 64 67 67 65 63 63 71 78 74 72 73 77 82 82 81 84 87 89 91
56 56 56 56 56 55 62 71 68 70 59 73 72 71 74 76 66 73 79 68 66 60 66 63 57 65 67 66 63 62 59 60 67 73 73 71 70 77 81 82 83 83 84 86 89
55 55 55 55 56 60 73 70 78 75 61 66 70 69 71 73 67 68 73 69 63 60 61 58 62 68 64 62 58 59 57 58 60 67 71 68 64 69 78 80 82 84 86 87 87
55 55 55 55 55 77 72 75 79 75 55 59 64 69 71 72 64 74 76 68 63 58 61 60 66 62 60 59 61 53 64 61 59 58 52 68 52 65 72 74 77 81 83 84 86
55 55 54 52 71 74 73 78 78 70 42 61 64 77 72 66 66 68 76 69 59 59 60 56 59 59 56 59 63 57 64 61 60 57 57 58 55 62 72 70 74 79 81 83 85
55 55 54 62 73 75 78 76 71 51 39 56 63 62 63 67 65 69 68 73 70 61 61 60 67 60 62 64 64 65 60 59 59 57 46 55 55 58 65 69 75 81 83 85 87
54 54 55 74 71 79 78 70 50 46 59 55 56 62 60 60 60 62 60 59 55 47 48 56 58 60 63 58 63 60 53 42 40 41 41 56 53 59 69 75 79 80 84 86 88
53 51 60 77 80 77 72 60 42 54 55 62 59 59 56 58 59 59 57 55 60 57 49 42 39 47 61 57 54 55 53 43 32 36 44 56 47 57 73 78 80 81 83 85 85
52 70 72 76 76 75 64 50 50 54 57 54 56 54 55 59 58 57 55 55 57 59 46 44 42 59 62 62 57 54 48 57 45 47 40 44 54 66 71 75 77 79 81 81 83
63 70 73 75 75 69 58 48 55 59 59 57 48 53 49 53 52 53 53 58 56 61 61 51 41 55 59 62 62 57 60 41 39 34 32 44 49 56 64 69 75 77 77 80 82
63 63 69 76 73 62 49 56 58 62 60 53 51 50 50 49 52 51 51 57 59 58 61 56 50 49 57 53 50 42 42 47 47 44 36 39 46 69 68 71 73 75 77 79 78
62 58 72 73 56 58 54 57 52 57 61 57 55 52 50 51 48 48 47 54 60 60 51 56 49 43 49 60 62 60 51 48 32 34 49 45 45 62 72 76 74 74 76 80 75
59 63 72 68 45 52 59 59 60 56 57 54 50 54 54 48 41 50 53 60 60 56 50 51 45 37 44 54 59 53 54 55 52 48 39 33 38 58 73 72 73 72 76 78 74
60 55 63 61 63 54 53 53 53 60 57 55 51 53 50 50 54 48 51 55 52 48 49 48 44 40 37 45 37 35 43 55 50 37 42 43 46 45 64 71 72 72 74 79 74
64 56 54 53 54 52 52 54 51 51 56 56 53 52 51 43 48 47 51 51 51 49 47 41 35 41 46 51 52 50 52 52 50 52 43 48 48 46 52 62 72 73 74 77 75
54 52 56 52 55 49 48 49 51 53 54 51 49 52 50 41 43 41 47 47 42 43 41 42 34 41 40 49 52 50 54 55 55 55 55 54 53 62 66 71 71 71 73 74 77
52 51 47 48 53 51 48 46 46 49 54 57 53 50 50 54 57 59 57 56 53 43 37 36 36 38 37 48 49 43 53 55 57 59 58 51 59 67 65 68 69 71 73 73 77
MSLP
1021.83 1021.43 1021.08 1020.71 1020.32 1019.90 1019.42 1018.94 1018.46 1018.09 1017.65 1017.19 1016.84 1016.50 1016.14 1015.62 1014.78 1012.85 1012.18 1012.86 1012.51 1012.48 1012.09 1010.55 1009.42 1008.76 1008.22 1007.15 1006.10 1005.41 1004.13 1001.98 1000.62 1000.06 999.34 999.01 998.97 998.42 997.91 997.58 997.16 997.84 997.90 997.21 998.11
1021.94 1021.52 1021.12 1020.76 1020.37 1019.95 1019.47 1018.92 1018.38 1017.95 1017.49 1017.04 1016.63 1016.23 1015.89 1015.68 1014.22 1011.31 1013.07 1013.01 1012.99 1012.65 1010.85 1009.27 1008.37 1007.87 1007.03 1006.47 1005.72 1004.75 1002.76 1001.18 1000.65 999.98 999.26 999.06 999.24 998.75 998.03 997.69 997.62 997.74 998.51 999.05 998.96
1021.92 1021.49 1021.09 1020.73 1020.30 1019.82 1019.30 1018.76 1018.22 1017.70 1017.23 1016.91 1016.50 1016.06 1015.62 1015.24 1012.22 1011.22 1012.63 1013.01 1012.76 1012.27 1010.67 1009.62 1008.85 1007.38 1006.20 1005.75 1004.81 1004.10 1001.77 1001.13 1000.13 1000.12 999.76 999.66 999.94 999.39 998.08 997.39 997.68 997.63 998.50 999.17 999.00
1021.89 1021.44 1021.02 1020.63 1020.21 1019.75 1019.25 1018.71 1018.15 1017.61 1017.23 1016.87 1016.43 1015.92 1015.33 1014.14 1010.90 1011.25 1012.48 1012.47 1012.01 1011.38 1010.15 1008.97 1008.11 1007.13 1005.86 1004.49 1004.21 1003.60 1002.13 1001.60 1000.72 1000.11 999.63 999.53 1000.08 999.24 998.48 998.05 997.67 997.53 997.80 998.65 999.34
1021.77 1021.30 1020.87 1020.41 1019.96 1019.48 1018.96 1018.46 1018.01 1017.51 1016.99 1016.57 1016.23 1015.79 1015.05 1012.01 1010.48 1011.23 1011.98 1011.44 1010.76 1010.19 1009.29 1008.52 1007.63 1006.61 1005.14 1004.38 1003.85 1002.22 1001.53 1001.26 1000.89 1000.89 1000.44 999.91 999.94 999.71 998.79 998.18 998.12 997.74 997.72 998.56 999.21
1021.60 1021.16 1020.72 1020.19 1019.68 1019.16 1018.62 1018.08 1017.72 1017.26 1016.74 1016.36 1016.00 1015.76 1014.12 1010.86 1010.91 1010.84 1010.87 1010.62 1009.92 1009.68 1009.09 1008.46 1007.65 1006.63 1005.35 1004.25 1003.45 1002.25 1001.62 1000.99 1000.61 1000.59 1000.39 1000.22 999.72 1000.21 998.87 998.78 998.06 998.09 998.01 998.42 999.15
1021.54 1021.12 1020.65 1020.10 1019.52 1018.96 1018.41 1017.81 1017.36 1016.89 1016.30 1015.93 1015.72 1015.00 1012.47 1010.59 1010.74 1010.37 1009.97 1009.70 1009.76 1009.84 1009.18 1008.43 1008.23 1007.63 1006.12 1005.06 1004.13 1003.14 1002.20 1001.10 1000.04 999.78 999.60 999.85 999.50 999.41 999.03 998.82 998.05 997.99 997.98 998.19 998.58
1021.32 1020.86 1020.37 1019.77 1019.12 1018.49 1017.93 1017.40 1016.89 1016.43 1015.93 1015.64 1015.56 1014.03 1010.73 1010.53 1010.42 1009.77 1009.77 1009.34 1009.15 1009.19 1009.47 1009.15 1008.63 1007.80 1006.75 1005.93 1004.39 1003.48 1002.26 1000.48 998.77 999.60 998.98 1000.05 998.00 998.08 998.65 998.38 997.82 997.61 997.35 997.32 997.60
1021.11 1020.52 1020.05 1019.45 1018.77 1018.10 1017.48 1016.96 1016.38 1015.85 1015.71 1015.61 1014.98 1012.92 1009.72 1010.36 1009.83 1009.95 1009.86 1009.40 1009.19 1008.71 1008.38 1008.94 1008.76 1007.54 1006.54 1005.69 1004.65 1003.06 1000.59 999.33 998.45 998.88 999.03 998.93 997.45 997.34 998.10 997.48 996.92 997.03 996.76 996.78 996.83
1021.10 1020.45 1019.89 1019.26 1018.53 1017.81 1016.99 1016.21 1015.80 1015.81 1015.28 1014.37 1013.16 1012.01 1009.86 1009.75 1009.87 1009.96 1009.57 1009.28 1008.76 1008.52 1008.10 1008.03 1007.62 1006.74 1005.46 1004.80 1002.22 1001.08 1000.34 999.41 998.21 997.72 998.06 997.84 996.69 996.56 997.04 996.98 996.86 996.72 996.29 995.96 995.98
1020.96 1020.29 1019.61 1018.97 1018.28 1017.54 1016.55 1014.37 1014.88 1014.21 1012.61 1011.51 1011.05 1010.60 1009.92 1009.89 1009.92 1009.43 1009.00 1008.99 1008.21 1007.90 1007.10 1006.45 1005.99 1004.77 1003.85 1003.35 1002.79 1002.28 1001.14 999.16 997.61 997.08 997.40 996.78 996.01 995.32 995.76 996.36 996.21 995.84 995.39 995.33 995.60
1020.64 1019.93 1019.19 1018.51 1017.89 1017.09 1016.37 1013.93 1014.29 1014.10 1012.46 1010.98 1010.65 1010.62 1010.39 1010.28 1009.74 1008.81 1009.04 1008.78 1007.98 1007.26 1006.54 1005.96 1004.96 1004.70 1004.44 1004.05 1003.55 1002.81 1001.57 999.92 999.46 998.40 997.60 996.35 995.88 995.00 994.87 994.81 995.15 995.44 995.36 995.18 995.16
1020.45 1019.68 1018.88 1018.15 1017.60 1016.61 1014.54 1014.35 1014.08 1013.89 1012.35 1010.01 1010.09 1009.96 1009.64 1009.84 1009.03 1008.80 1008.93 1008.47 1007.98 1007.12 1006.41 1005.52 1004.85 1004.40 1004.18 1003.99 1003.77 1002.96 1002.10 1001.01 1000.10 999.51 998.75 997.69 996.47 995.10 994.81 994.80 994.79 994.77 994.82 994.74 994.68
1020.12 1019.34 1018.58 1017.90 1017.81 1014.51 1013.80 1014.31 1013.95 1014.00 1011.49 1009.66 1009.54 1009.22 1009.56 1009.13 1008.16 1008.86 1008.44 1008.58 1007.98 1007.09 1006.46 1005.56 1005.23 1004.70 1004.29 1003.64 1003.56 1002.61 1002.43 1001.88 1001.28 1000.52 998.84 997.91 995.66 995.26 994.82 994.40 994.51 994.14 994.12 994.25 994.36
1019.66 1018.84 1018.21 1018.05 1015.77 1013.75 1014.44 1014.11 1014.05 1013.86 1010.44 1009.68 1008.91 1009.40 1009.20 1008.77 1008.56 1008.04 1008.09 1008.17 1007.43 1006.93 1006.77 1005.37 1004.75 1004.27 1003.68 1003.08 1003.16 1002.52 1002.42 1001.98 1001.48 1000.79 999.65 998.41 996.53 994.38 994.15 993.44 993.22 993.18 993.27 993.27 993.58
1019.26 1018.50 1017.96 1016.95 1015.43 1014.41 1014.31 1014.37 1014.11 1012.25 1009.44 1009.02 1009.09 1008.68 1008.31 1007.77 1007.66 1007.40 1007.54 1007.49 1006.96 1006.47 1005.93 1005.12 1004.71 1005.10 1003.41 1003.04 1002.87 1002.89 1002.64 1002.18 1001.64 1000.83 999.10 998.12 996.81 994.42 993.89 993.35 992.47 992.24 992.14 992.17 992.33
1018.74 1018.18 1017.82 1015.49 1014.06 1014.27 1014.29 1013.64 1012.21 1010.02 1009.87 1008.83 1008.73 1008.62 1008.27 1007.24 1007.44 1007.07 1006.95 1006.46 1005.88 1005.99 1005.59 1005.21 1004.49 1004.51 1004.19 1003.29 1002.96 1002.96 1002.88 1002.23 1001.46 1000.44 998.91 998.87 996.89 994.79 994.05 993.46 992.10 991.59 991.21 991.12 991.46
1018.11 1017.78 1016.36 1014.88 1014.48 1014.51 1013.97 1012.46 1010.93 1009.76 1009.41 1009.44 1009.34 1008.87 1007.63 1007.38 1007.31 1006.88 1006.58 1005.81 1005.81 1005.96 1006.11 1005.94 1005.41 1005.89 1004.42 1003.57 1002.83 1002.71 1002.96 1002.59 1001.75 1000.70 999.31 998.22 996.38 994.86 993.78 992.43 992.00 991.93 991.63 991.47 991.47
1017.33 1015.92 1014.91 1014.39 1014.80 1014.51 1013.38 1011.16 1009.89 1009.85 1010.38 1010.29 1009.76 1008.23 1007.36 1007.20 1007.32 1006.84 1006.46 1006.06 1006.47 1006.54 1006.64 1006.46 1005.78 1005.17 1003.93 1003.52 1004.07 1002.97 1002.69 1003.22 1003.20 1002.69 1000.81 999.38 996.83 994.88 993.57 992.41 992.24 991.94 991.57 991.58 991.69
1017.47 1014.85 1013.54 1014.49 1014.62 1014.25 1012.73 1011.19 1010.47 1010.87 1011.15 1010.89 1010.20 1009.45 1008.43 1008.16 1008.03 1007.16 1006.68 1006.57 1006.70 1006.77 1006.86 1006.91 1005.96 1005.21 1003.97 1003.82 1003.21 1003.21 1003.35 1003.96 1005.33 1002.85 1000.68 998.53 995.15 992.46 992.60 992.08 991.78 991.38 992.00 991.95 991.52
1017.02 1014.36 1014.39 1014.46 1014.32 1013.36 1012.14 1010.53 1010.83 1011.30 1011.74 1011.43 1010.70 1010.21 1009.75 1009.24 1008.80 1008.20 1007.52 1007.05 1007.15 1006.97 1007.14 1006.85 1006.22 1005.00 1004.05 1003.34 1002.95 1004.40 1004.43 1004.55 1004.29 1003.59 1001.35 997.65 995.09 991.63 991.22 991.70 991.91 991.76 992.35 991.85 992.47
1016.58 1013.80 1014.24 1014.41 1013.70 1012.63 1011.62 1011.52 1012.16 1011.55 1011.61 1011.51 1011.64 1011.20 1010.71 1010.12 1009.68 1008.86 1008.14 1007.37 1008.00 1007.86 1007.62 1007.24 1006.85 1005.43 1003.89 1002.58 1002.42 1002.41 1003.44 1004.33 1005.05 1003.07 1000.76 999.40 996.56 993.91 991.28 990.12 992.27 992.84 992.83 991.98 993.27
1016.73 1014.52 1014.13 1014.41 1013.59 1012.66 1012.05 1011.64 1011.43 1011.53 1011.51 1011.55 1011.88 1011.56 1011.52 1011.00 1010.33 1009.10 1008.12 1007.94 1008.26 1008.74 1008.95 1009.18 1007.86 1006.28 1003.82 1002.06 1001.70 1002.21 1002.51 1002.79 1003.03 1002.84 1001.73 1000.98 998.39 995.85 992.48 993.03 993.79 994.10 993.28 992.51 993.39
1017.05 1014.53 1013.62 1014.22 1013.85 1013.64 1012.65 1012.18 1011.81 1011.72 1011.64 1012.01 1012.31 1012.09 1011.45 1010.53 1009.78 1008.92 1008.17 1008.19 1009.71 1010.74 1010.81 1010.97 1009.57 1008.08 1005.48 1002.63 1004.69 1005.22 1004.09 1001.95 1002.16 1001.99 1000.58 1000.01 999.08 997.61 995.02 993.58 993.92 994.56 994.13 992.74 993.48
1017.42 1016.15 1016.61 1014.50 1014.24 1014.38 1014.29 1013.02 1012.33 1011.88 1011.98 1012.26 1011.78 1011.51 1010.99 1010.59 1009.82 1008.84 1008.35 1008.33 1009.19 1010.27 1011.02 1011.49 1009.95 1008.72 1006.55 1004.40 1003.15 1002.32 1001.47 1001.02 1000.38 999.68 999.11 998.78 998.83 999.07 997.69 995.41 993.83 994.60 994.34 993.32 993.72
1018.89 1018.67 1017.85 1017.00 1015.60 1015.40 1014.82 1013.56 1012.81 1012.42 1012.40 1011.88 1011.64 1011.12 1011.30 1011.11 1010.58 1008.78 1008.40 1008.17 1008.87 1009.59 1010.12 1010.41 1009.47 1008.66 1006.57 1004.85 1002.97 1001.32 1000.46 999.95 999.61 997.90 997.54 997.21 997.15 997.51 996.65 995.33 994.52 994.72 994.61 993.91 993.61
1021.52 1021.43 1020.56 1018.27 1015.94 1015.32 1015.21 1015.20 1014.79 1014.65 1013.05 1012.18 1011.88 1011.32 1010.41 1009.32 1008.65 1007.77 1007.34 1006.93 1007.53 1008.48 1009.71 1010.19 1009.53 1008.11 1005.53 1004.00 1002.17 1000.40 999.01 998.53 998.27 997.03 996.81 996.08 995.89 995.74 995.48 994.83 994.31 994.38 994.39 994.21 993.69
Wind_Speed
15 15 15 16 16 17 17 17 17 17 17 16 17 17 17 18 22 21 11 9 11 14 15 15 16 14 14 20 23 20 18 20 24 23 19 12 19 16 17 19 7 11 5 9 14
15 15 16 16 16 16 17 17 17 17 17 17 18 18 17 15 19 10 10 7 10 15 13 12 15 16 17 17 20 23 18 28 23 21 17 13 14 18 22 13 14 16 9 5 7
16 16 16 16 17 17 17 18 17 18 18 17 17 18 17 16 13 13 9 5 10 14 15 10 14 19 23 21 23 26 28 25 24 24 20 14 20 21 23 18 21 17 13 8 4
16 17 17 17 17 17 17 18 18 18 17 16 16 16 17 16 2 10 5 8 11 12 13 13 13 18 24 28 25 28 33 30 30 28 17 18 20 25 23 19 20 21 19 20 11
17 17 18 18 18 18 18 18 18 18 19 18 15 14 13 10 7 7 5 12 13 9 10 12 15 17 25 24 25 33 30 30 28 22 26 20 23 25 27 23 21 22 12 9 12
17 18 19 19 19 20 20 19 17 18 18 15 13 10 10 11 4 4 8 9 10 10 10 10 12 15 21 23 28 26 30 33 29 26 26 28 27 22 29 26 25 24 23 19 19
17 17 18 19 19 20 20 18 17 18 17 14 10 11 12 7 4 6 9 8 6 10 11 11 9 16 11 17 24 25 28 28 28 29 33 24 28 30 31 27 28 27 25 22 23
19 18 19 20 20 21 20 19 19 18 14 8 6 12 8 4 8 8 11 9 9 7 10 12 13 16 21 20 28 20 22 27 34 28 27 27 33 34 28 29 30 29 26 22 26
20 19 20 21 21 21 22 21 22 12 7 6 9 9 5 8 4 11 10 10 11 13 11 7 15 16 15 18 19 21 26 30 31 29 29 28 35 33 33 30 27 29 28 25 26
20 19 20 21 21 21 22 23 8 7 9 10 11 9 6 7 12 12 10 10 12 10 12 14 14 14 15 15 22 23 26 29 31 26 29 31 34 32 30 30 26 31 31 25 28
21 20 20 20 20 20 18 6 7 10 15 13 11 9 8 12 11 7 5 10 9 11 12 12 15 14 17 16 22 24 29 33 28 24 28 28 31 35 30 27 27 26 22 29 30
22 22 21 20 19 20 12 7 7 8 11 12 12 10 10 7 10 9 5 12 12 15 15 13 16 17 18 15 21 24 26 30 29 30 24 22 27 33 27 29 29 28 28 28 24
24 21 21 19 18 12 5 7 8 9 9 3 5 7 5 6 12 12 10 11 14 17 15 16 17 21 17 17 19 20 23 25 28 24 28 25 29 30 26 27 24 27 29 28 27
23 22 19 17 9 4 2 5 8 6 8 11 9 3 7 7 17 6 10 10 13 18 19 16 15 16 16 21 17 21 20 21 26 22 22 28 20 27 25 25 27 27 23 24 24
24 23 18 8 10 4 7 8 8 6 7 5 5 6 7 11 8 11 3 12 18 18 18 18 20 21 22 21 17 21 19 21 23 26 25 30 23 20 22 27 27 27 29 29 27
25 23 13 7 7 5 7 6 6 9 1 4 3 5 11 12 6 8 9 13 19 18 18 20 14 22 19 20 18 15 17 20 21 20 23 25 27 23 21 23 20 19 21 23 22
26 20 8 9 6 6 7 8 8 8 5 2 6 11 15 14 10 6 11 14 14 10 14 20 16 7 16 16 18 16 14 13 16 17 18 23 26 20 24 29 26 21 23 10 15
27 17 9 8 6 6 8 10 8 7 10 11 10 16 17 3 8 10 14 13 11 8 13 9 12 4 13 9 20 17 17 13 17 17 19 26 26 21 24 24 16 18 15 14 10
30 7 7 4 5 6 10 8 5 8 8 10 15 14 8 7 10 15 11 12 7 11 12 13 9 20 18 9 8 17 18 21 21 25 19 20 30 34 31 19 13 16 10 6 10
9 7 4 3 5 8 9 10 9 2 10 11 14 9 14 17 14 12 10 7 7 11 11 9 18 18 15 10 18 17 14 13 7 20 23 19 23 19 30 19 16 10 3 9 7
7 6 7 2 5 9 6 10 10 7 10 7 12 17 17 16 15 18 10 14 9 9 14 16 18 19 17 15 16 2 6 8 9 13 13 17 13 15 27 30 19 5 2 4 7
7 5 5 3 7 5 7 7 6 8 8 8 10 15 14 15 17 19 20 14 8 13 15 18 14 17 22 23 13 12 13 19 5 13 19 11 17 16 12 21 13 5 4 6 6
7 5 5 2 3 8 11 13 10 8 11 7 9 16 14 16 14 14 18 17 14 13 7 11 7 11 17 16 16 7 9 13 8 9 15 9 11 19 23 17 11 9 12 13 9
6 5 4 1 3 7 13 11 10 5 10 8 9 15 15 16 15 15 21 19 11 14 20 12 15 18 18 20 9 5 20 14 11 6 14 18 16 20 5 15 12 8 14 12 11
2 5 4 5 8 10 11 15 11 10 4 6 10 11 12 14 20 23 20 23 15 18 17 5 11 19 25 28 24 17 20 12 18 19 21 20 12 14 26 30 10 9 12 12 13
7 6 10 12 9 6 10 11 11 10 16 17 15 16 14 16 20 29 27 23 15 5 6 11 9 15 22 23 26 23 22 18 19 25 24 22 20 14 21 20 14 11 11 12 8
3 4 5 9 6 7 5 11 14 17 13 12 14 17 20 21 20 25 24 26 20 12 7 4 6 9 19 21 22 20 22 19 20 24 21 22 20 16 17 18 15 13 11 12 6
Wind_Direction
345 343 342 338 335 331 329 326 321 316 314 315 314 312 313 317 304 270 250 30 351 326 308 271 259 247 228 247 234 227 245 249 248 251 250 260 245 243 254 245 213 192 10 74 121
344 340 338 335 332 329 325 320 317 313 311 313 313 310 309 314 295 263 86 22 324 312 295 279 251 231 227 233 236 231 234 237 249 258 256 257 264 262 240 229 244 223 101 132 166
341 338 336 334 332 329 325 321 318 315 313 313 311 306 304 306 271 91 135 330 299 291 277 277 274 267 236 228 225 236 242 247 243 250 258 252 252 249 264 224 225 203 185 179 168
339 337 335 333 330 327 323 320 317 314 311 307 304 302 304 282 337 92 166 273 279 280 274 262 243 245 242 234 233 231 242 247 260 275 263 241 252 262 246 246 251 222 198 189 183
338 337 333 332 329 326 323 320 319 315 310 305 301 302 292 227 52 103 214 241 283 304 271 265 261 248 244 246 241 240 244 249 255 254 268 267 242 253 261 247 246 262 254 235 231
339 336 332 331 328 325 321 318 317 315 306 296 291 299 257 259 25 304 311 299 289 299 305 267 260 269 276 260 248 255 250 254 253 253 250 247 249 251 249 258 249 246 252 235 239
338 335 331 328 325 321 317 314 314 310 300 293 282 265 268 38 302 308 269 309 269 295 285 303 296 271 263 253 256 263 266 268 258 241 244 246 244 241 249 252 247 245 244 247 246
337 333 332 328 323 320 315 312 309 302 288 284 260 264 285 84 330 299 326 316 321 225 263 284 286 273 266 268 283 277 256 248 242 243 244 234 253 245 247 246 246 249 248 243 247
338 333 332 327 322 318 313 307 301 280 243 240 234 234 236 134 294 341 319 315 307 295 257 248 273 270 255 241 253 245 247 239 252 239 242 236 246 246 251 257 247 244 247 243 251
335 331 328 323 318 313 308 295 305 189 214 209 257 254 214 338 345 314 289 309 306 299 274 234 245 243 232 237 240 244 241 243 256 252 225 242 238 243 246 248 250 255 261 249 246
334 330 325 319 314 307 310 211 213 197 235 293 322 294 299 336 309 301 331 297 264 263 265 269 242 255 265 255 256 268 276 278 270 251 239 255 239 247 239 240 249 254 257 237 249
338 332 326 318 312 305 289 360 36 337 296 280 255 261 274 284 285 315 280 295 309 293 297 268 244 255 256 277 283 276 271 262 267 273 277 264 256 256 252 242 238 244 250 255 260
338 331 323 316 314 287 329 31 337 336 267 173 218 248 292 273 287 304 296 301 291 296 283 279 291 303 288 262 271 269 265 273 275 268 264 256 262 263 251 253 254 251 251 252 251
333 332 324 315 292 351 190 354 309 344 271 131 203 149 249 298 264 302 289 269 289 290 295 285 282 276 283 279 261 272 274 263 266 266 257 248 257 243 247 246 245 248 245 252 256
333 333 325 274 321 285 359 320 334 236 266 107 147 44 255 267 298 283 296 275 284 293 295 289 290 282 274 266 264 272 275 266 259 255 257 250 258 254 248 237 239 236 238 240 240
333 333 326 201 236 15 310 337 244 231 352 162 266 275 292 303 277 283 276 256 261 262 264 269 273 298 266 279 267 282 283 268 265 253 247 250 249 247 242 259 266 254 253 247 244
329 328 277 310 349 347 312 250 245 284 124 91 325 312 310 293 321 319 302 296 285 299 298 310 281 293 265 255 252 253 258 260 246 241 250 257 251 244 249 243 262 247 241 251 262
323 320 201 283 317 319 277 255 278 0 317 359 308 305 275 306 302 288 296 292 314 303 305 311 301 39 286 276 277 259 251 258 265 254 250 228 248 253 250 260 274 297 268 268 266
311 208 236 167 307 290 272 261 295 351 354 324 306 295 316 315 330 304 297 309 331 321 314 302 303 309 314 292 293 276 250 257 268 269 273 278 279 221 251 226 226 237 218 253 274
308 281 222 51 279 275 263 279 291 339 310 304 301 291 311 326 316 313 313 323 297 296 300 297 299 303 310 291 253 232 259 242 223 255 260 258 262 218 215 228 217 195 240 274 299
259 265 91 320 267 249 281 305 330 348 311 297 300 307 308 308 311 307 287 290 302 316 310 295 285 297 284 262 274 47 284 278 302 248 268 259 301 229 201 204 221 102 341 1 299
301 271 80 313 259 209 261 8 311 295 288 283 281 289 296 304 307 295 292 284 287 302 299 298 304 276 277 288 226 271 198 216 214 261 242 284 270 301 99 120 107 56 6 30 49
300 291 122 323 301 331 308 316 291 283 304 302 297 300 309 297 299 288 293 308 314 307 302 332 270 287 278 254 225 271 231 229 258 260 263 266 272 325 112 108 88 24 341 50 94
289 297 121 213 261 303 332 317 329 325 297 331 302 301 285 285 285 280 276 287 5 321 321 323 273 265 273 296 95 304 283 268 232 265 272 258 267 297 304 135 107 40 342 0 65
313 43 351 314 333 328 306 293 295 299 311 274 282 270 306 305 304 295 300 306 288 262 252 254 260 269 271 276 275 263 263 256 267 261 248 270 282 260 287 295 15 14 323 324 84
334 350 356 294 306 351 300 306 318 328 324 304 284 313 322 287 277 287 290 294 298 287 251 209 243 256 266 269 273 269 265 253 259 271 274 275 269 257 256 268 300 318 326 310 57
28 348 307 310 286 288 314 324 325 320 303 318 317 300 292 297 304 296 294 285 280 249 202 234 222 238 256 257 257 262 248 246 248 261 264 267 274 270 268 275 285 288 291 297 328